DAL363 KATL-KLGA

Flight info

Callsign DAL363
Flight time N/A
Altitude 37000
Route JACCC2 KELLN BYJAC Q60 HURTS PROUD2
Aircraft A339/H-SADE1E2E3GHIJ3J5M1P2RWXY/LB2D1

Departure

Time 2026-05-07 13:36
Airport Hartsfield Jackson Atlanta International Airport (KATL)

Arrival

Time N/A
Airport LaGuardia Airport (KLGA)
Time Latitude Longitude Altitude Speed Heading
2026-05-07 13:02 33.63833 -84.43659 1032 ft 0 kts 90°
2026-05-07 13:19 33.63833 -84.43663 1032 ft 2 kts 90°
2026-05-07 13:19 33.63834 -84.43681 1032 ft 2 kts 104°
2026-05-07 13:20 33.63840 -84.43697 1032 ft 2 kts 126°
2026-05-07 13:20 33.63850 -84.43710 1032 ft 2 kts 144°
2026-05-07 13:20 33.63863 -84.43719 1032 ft 2 kts 163°
2026-05-07 13:20 33.63875 -84.43722 1032 ft 0 kts 179°
2026-05-07 13:21 33.63880 -84.43722 1032 ft 0 kts 181°
2026-05-07 13:26 33.63879 -84.43722 1032 ft 0 kts 181°
2026-05-07 13:26 33.63868 -84.43722 1032 ft 3 kts 180°
2026-05-07 13:26 33.63831 -84.43722 1032 ft 7 kts 180°
2026-05-07 13:27 33.63768 -84.43722 1032 ft 10 kts 180°
2026-05-07 13:27 33.63701 -84.43733 1032 ft 6 kts 219°
2026-05-07 13:27 33.63679 -84.43748 1032 ft 4 kts 199°
2026-05-07 13:27 33.63638 -84.43760 1032 ft 7 kts 181°
2026-05-07 13:28 33.63590 -84.43727 1029 ft 10 kts 118°
2026-05-07 13:28 33.63580 -84.43621 1028 ft 14 kts 89°
2026-05-07 13:28 33.63581 -84.43492 1028 ft 16 kts 90°
2026-05-07 13:28 33.63580 -84.43346 1028 ft 18 kts 89°
2026-05-07 13:29 33.63581 -84.43192 1028 ft 19 kts 89°
2026-05-07 13:29 33.63582 -84.43027 1028 ft 20 kts 90°
2026-05-07 13:29 33.63582 -84.42854 1028 ft 21 kts 90°
2026-05-07 13:29 33.63579 -84.42671 1028 ft 22 kts 91°
2026-05-07 13:30 33.63580 -84.42484 1028 ft 22 kts 89°
2026-05-07 13:30 33.63581 -84.42293 1028 ft 23 kts 91°
2026-05-07 13:30 33.63581 -84.42098 1027 ft 23 kts 88°
2026-05-07 13:30 33.63581 -84.41922 1026 ft 18 kts 90°
2026-05-07 13:31 33.63581 -84.41767 1025 ft 19 kts 89°
2026-05-07 13:31 33.63580 -84.41590 1023 ft 22 kts 90°
2026-05-07 13:31 33.63582 -84.41402 1020 ft 22 kts 89°
2026-05-07 13:31 33.63578 -84.41222 1017 ft 16 kts 90°
2026-05-07 13:32 33.63581 -84.41096 1015 ft 15 kts 90°
2026-05-07 13:32 33.63581 -84.40968 1014 ft 14 kts 90°
2026-05-07 13:32 33.63581 -84.40850 1014 ft 10 kts 90°
2026-05-07 13:32 33.63577 -84.40784 1013 ft 6 kts 110°
2026-05-07 13:33 33.63546 -84.40752 1013 ft 5 kts 166°
2026-05-07 13:33 33.63512 -84.40749 1013 ft 0 kts 184°
2026-05-07 13:33 33.63500 -84.40752 1013 ft 3 kts 200°
2026-05-07 13:34 33.63475 -84.40786 1013 ft 7 kts 253°
2026-05-07 13:34 33.63469 -84.40912 1014 ft 7 kts 269°
2026-05-07 13:34 33.63469 -84.40942 1014 ft 0 kts 271°
2026-05-07 13:35 33.63469 -84.40977 1014 ft 18 kts 271°
2026-05-07 13:36 33.63466 -84.41421 1017 ft 86 kts 274°
2026-05-07 13:36 33.63473 -84.42392 1020 ft 143 kts 269°
2026-05-07 13:36 33.63438 -84.43733 1268 ft 169 kts 268°
2026-05-07 13:36 33.63368 -84.45101 1910 ft 167 kts 268°
2026-05-07 13:37 33.63311 -84.46455 2671 ft 161 kts 269°
2026-05-07 13:37 33.63191 -84.47759 3274 ft 162 kts 262°
2026-05-07 13:37 33.62891 -84.49101 3656 ft 175 kts 250°
2026-05-07 13:37 33.62303 -84.50461 3969 ft 193 kts 245°
2026-05-07 13:38 33.61620 -84.51937 4278 ft 211 kts 245°
2026-05-07 13:38 33.60902 -84.53543 4630 ft 229 kts 245°
2026-05-07 13:38 33.60148 -84.55293 5033 ft 246 kts 246°
2026-05-07 13:38 33.59227 -84.57035 5679 ft 256 kts 229°
2026-05-07 13:39 33.57720 -84.58177 6525 ft 264 kts 204°
2026-05-07 13:39 33.55870 -84.58474 7335 ft 274 kts 187°
2026-05-07 13:39 33.54205 -84.58459 8018 ft 276 kts 187°
2026-05-07 13:39 33.52271 -84.58446 8775 ft 278 kts 188°
2026-05-07 13:40 33.50326 -84.58434 9520 ft 282 kts 187°
2026-05-07 13:40 33.48381 -84.57941 10222 ft 303 kts 163°
2026-05-07 13:40 33.46646 -84.56365 10967 ft 326 kts 136°
2026-05-07 13:40 33.45593 -84.53891 11538 ft 349 kts 107°
2026-05-07 13:41 33.45400 -84.50964 12168 ft 360 kts 92°
2026-05-07 13:41 33.45475 -84.47955 12816 ft 366 kts 89°
2026-05-07 13:41 33.45567 -84.44888 13332 ft 376 kts 90°
2026-05-07 13:41 33.45612 -84.41747 13832 ft 386 kts 91°
2026-05-07 13:42 33.45610 -84.38490 14464 ft 392 kts 92°
2026-05-07 13:42 33.45645 -84.35218 15089 ft 398 kts 85°
2026-05-07 13:42 33.46234 -84.31986 15663 ft 402 kts 66°
2026-05-07 13:42 33.47426 -84.28968 16316 ft 403 kts 58°
2026-05-07 13:43 33.48780 -84.26037 16950 ft 407 kts 55°
2026-05-07 13:43 33.50176 -84.23086 17577 ft 411 kts 55°
2026-05-07 13:43 33.51576 -84.20088 18152 ft 418 kts 56°
2026-05-07 13:43 33.52977 -84.17037 18785 ft 422 kts 57°
2026-05-07 13:44 33.54377 -84.13940 19427 ft 425 kts 57°
2026-05-07 13:44 33.55768 -84.10834 20042 ft 429 kts 57°
2026-05-07 13:44 33.57178 -84.07672 20620 ft 433 kts 57°
2026-05-07 13:44 33.58626 -84.04426 21170 ft 438 kts 58°
2026-05-07 13:45 33.60054 -84.01205 21727 ft 442 kts 58°
2026-05-07 13:45 33.61489 -83.97971 22299 ft 444 kts 58°
2026-05-07 13:45 33.62937 -83.94707 22850 ft 447 kts 58°
2026-05-07 13:45 33.64403 -83.91395 23378 ft 451 kts 58°
2026-05-07 13:46 33.65880 -83.88064 23878 ft 455 kts 58°
2026-05-07 13:46 33.67371 -83.84698 24373 ft 459 kts 58°
2026-05-07 13:46 33.68864 -83.81316 24882 ft 463 kts 58°
2026-05-07 13:46 33.70375 -83.77892 25391 ft 466 kts 58°
2026-05-07 13:47 33.71891 -83.74456 25870 ft 470 kts 58°
2026-05-07 13:47 33.73419 -83.70993 26313 ft 474 kts 59°
2026-05-07 13:47 33.74971 -83.67472 26763 ft 478 kts 59°
2026-05-07 13:47 33.76606 -83.63976 27212 ft 479 kts 54°
2026-05-07 13:48 33.78354 -83.60630 27680 ft 481 kts 53°
2026-05-07 13:48 33.80172 -83.57250 28116 ft 484 kts 53°
2026-05-07 13:48 33.82030 -83.53816 28536 ft 487 kts 53°
2026-05-07 13:48 33.83851 -83.50440 28954 ft 490 kts 53°
2026-05-07 13:49 33.85732 -83.46952 29351 ft 494 kts 53°
2026-05-07 13:49 33.87575 -83.43508 29735 ft 498 kts 54°
2026-05-07 13:49 33.89468 -83.39963 30096 ft 503 kts 54°
2026-05-07 13:49 33.91342 -83.36445 30479 ft 506 kts 54°
2026-05-07 13:50 33.93239 -83.32883 30866 ft 509 kts 55°
2026-05-07 13:50 33.95155 -83.29279 31253 ft 511 kts 55°
2026-05-07 13:50 33.97079 -83.25663 31584 ft 514 kts 55°
2026-05-07 13:50 33.99010 -83.22028 31905 ft 518 kts 55°
2026-05-07 13:51 34.00946 -83.18377 32276 ft 520 kts 55°
2026-05-07 13:51 34.02879 -83.14738 32768 ft 518 kts 56°
2026-05-07 13:51 34.04815 -83.11083 33274 ft 517 kts 56°
2026-05-07 13:51 34.06722 -83.07454 33852 ft 515 kts 54°
2026-05-07 13:52 34.08637 -83.03827 34360 ft 514 kts 55°
2026-05-07 13:52 34.10569 -83.00159 34801 ft 514 kts 54°
2026-05-07 13:52 34.12469 -82.96558 35225 ft 514 kts 54°
2026-05-07 13:52 34.14382 -82.92921 35564 ft 515 kts 54°
2026-05-07 13:53 34.16298 -82.89262 35803 ft 518 kts 55°
2026-05-07 13:53 34.18216 -82.85586 36128 ft 520 kts 54°
2026-05-07 13:53 34.20146 -82.81879 36396 ft 522 kts 54°
2026-05-07 13:53 34.22076 -82.78168 36707 ft 523 kts 53°
2026-05-07 13:54 34.24014 -82.74453 36901 ft 527 kts 53°
2026-05-07 13:54 34.27901 -82.66992 36904 ft 528 kts 53°
2026-05-07 13:55 34.31814 -82.59444 36905 ft 532 kts 54°
2026-05-07 13:55 34.35739 -82.51851 36902 ft 532 kts 53°
2026-05-07 13:56 34.39642 -82.44282 36909 ft 533 kts 53°
2026-05-07 13:56 34.43559 -82.36680 36907 ft 533 kts 53°
2026-05-07 13:57 34.47267 -82.28900 36906 ft 535 kts 57°
2026-05-07 13:57 34.50864 -82.21041 36912 ft 534 kts 56°
2026-05-07 13:58 34.55028 -82.13704 36912 ft 528 kts 46°
2026-05-07 13:58 34.59815 -82.07011 36914 ft 526 kts 41°
2026-05-07 13:59 34.64682 -82.00436 36908 ft 526 kts 42°
2026-05-07 13:59 34.69544 -81.93790 36911 ft 525 kts 43°
2026-05-07 14:00 34.74371 -81.87128 36913 ft 525 kts 41°
2026-05-07 14:00 34.79196 -81.80462 36912 ft 527 kts 42°
2026-05-07 14:01 34.84002 -81.73793 36905 ft 527 kts 43°
2026-05-07 14:01 34.88384 -81.67695 36907 ft 526 kts 42°
2026-05-07 14:02 34.92856 -81.61468 36905 ft 526 kts 42°
2026-05-07 14:02 34.97670 -81.54768 36903 ft 528 kts 42°
2026-05-07 14:03 35.02480 -81.48036 36901 ft 525 kts 42°
2026-05-07 14:03 35.07286 -81.41316 36900 ft 526 kts 41°
2026-05-07 14:04 35.12062 -81.34627 36901 ft 528 kts 43°
2026-05-07 14:04 35.16874 -81.27858 36908 ft 528 kts 43°
2026-05-07 14:05 35.21673 -81.21101 36912 ft 529 kts 43°
2026-05-07 14:05 35.26483 -81.14314 36912 ft 529 kts 43°
2026-05-07 14:06 35.31305 -81.07502 36915 ft 530 kts 43°
2026-05-07 14:06 35.36111 -81.00691 36916 ft 529 kts 43°
2026-05-07 14:07 35.40830 -80.93996 36918 ft 531 kts 42°
2026-05-07 14:07 35.45666 -80.87126 36919 ft 533 kts 42°
2026-05-07 14:08 35.50464 -80.80280 36911 ft 531 kts 43°
2026-05-07 14:08 35.55276 -80.73417 36918 ft 533 kts 43°
2026-05-07 14:09 35.60096 -80.66518 36915 ft 533 kts 42°
2026-05-07 14:09 35.64917 -80.59605 36916 ft 533 kts 43°
2026-05-07 14:10 35.69741 -80.52670 36915 ft 534 kts 42°
2026-05-07 14:10 35.74542 -80.45761 36911 ft 534 kts 43°
2026-05-07 14:11 35.79393 -80.38776 36913 ft 536 kts 43°
2026-05-07 14:11 35.84187 -80.31836 36908 ft 536 kts 43°
2026-05-07 14:12 35.89026 -80.24829 36914 ft 537 kts 43°
2026-05-07 14:12 35.93853 -80.17817 36909 ft 536 kts 44°
2026-05-07 14:13 35.98304 -80.10390 36910 ft 546 kts 52°
2026-05-07 14:13 36.02393 -80.02486 36909 ft 545 kts 52°
2026-05-07 14:14 36.06458 -79.94609 36912 ft 544 kts 51°
2026-05-07 14:14 36.10627 -79.86833 36908 ft 543 kts 49°
2026-05-07 14:15 36.14955 -79.79255 36910 ft 542 kts 49°
2026-05-07 14:15 36.19311 -79.71639 36909 ft 544 kts 49°
2026-05-07 14:16 36.23631 -79.64015 36910 ft 544 kts 48°
2026-05-07 14:16 36.27975 -79.56339 36909 ft 544 kts 49°
2026-05-07 14:17 36.32300 -79.48676 36908 ft 544 kts 49°
2026-05-07 14:17 36.36607 -79.41016 36910 ft 544 kts 49°
2026-05-07 14:18 36.40923 -79.33328 36906 ft 544 kts 49°
2026-05-07 14:18 36.45229 -79.25645 36908 ft 545 kts 50°
2026-05-07 14:19 36.49528 -79.17950 36915 ft 544 kts 49°
2026-05-07 14:19 36.53839 -79.10222 36911 ft 544 kts 50°
2026-05-07 14:20 36.58135 -79.02504 36913 ft 544 kts 50°
2026-05-07 14:20 36.62391 -78.94780 36922 ft 544 kts 50°
2026-05-07 14:21 36.66672 -78.86977 36921 ft 544 kts 49°
2026-05-07 14:21 36.70853 -78.79213 36926 ft 545 kts 53°
2026-05-07 14:22 36.74531 -78.70946 36933 ft 547 kts 58°
2026-05-07 14:22 36.78005 -78.62527 36931 ft 548 kts 58°
2026-05-07 14:23 36.81489 -78.54111 36941 ft 549 kts 58°
2026-05-07 14:23 36.85004 -78.45695 36937 ft 549 kts 58°
2026-05-07 14:24 36.88512 -78.37265 36943 ft 548 kts 58°
2026-05-07 14:24 36.92012 -78.28838 36935 ft 549 kts 59°
2026-05-07 14:25 36.95519 -78.20356 36941 ft 549 kts 59°
2026-05-07 14:25 36.99003 -78.11927 36945 ft 549 kts 59°
2026-05-07 14:26 37.02508 -78.03420 36955 ft 550 kts 59°
2026-05-07 14:26 37.05987 -77.94957 36950 ft 550 kts 60°
2026-05-07 14:27 37.09481 -77.86414 36954 ft 550 kts 60°
2026-05-07 14:27 37.12934 -77.77945 36950 ft 550 kts 59°
2026-05-07 14:28 37.16408 -77.69433 36945 ft 551 kts 59°
2026-05-07 14:28 37.19879 -77.60885 36957 ft 549 kts 58°
2026-05-07 14:29 37.23338 -77.52362 36959 ft 550 kts 59°
2026-05-07 14:29 37.26780 -77.43845 36956 ft 551 kts 59°
2026-05-07 14:30 37.30224 -77.35289 36958 ft 550 kts 58°
2026-05-07 14:30 37.33670 -77.26724 36948 ft 551 kts 59°
2026-05-07 14:31 37.37107 -77.18165 36948 ft 551 kts 59°
2026-05-07 14:31 37.40541 -77.09564 36953 ft 550 kts 59°
2026-05-07 14:32 37.44091 -77.01149 36940 ft 545 kts 51°
2026-05-07 14:32 37.48718 -76.93762 36944 ft 532 kts 36°
2026-05-07 14:33 37.54326 -76.87954 36950 ft 519 kts 22°
2026-05-07 14:33 37.60316 -76.82838 36946 ft 519 kts 22°
2026-05-07 14:34 37.66266 -76.77724 36945 ft 522 kts 23°
2026-05-07 14:34 37.72244 -76.72475 36951 ft 522 kts 23°
2026-05-07 14:35 37.78152 -76.67254 36946 ft 523 kts 23°
2026-05-07 14:35 37.84112 -76.61961 36950 ft 522 kts 23°
2026-05-07 14:35 37.87121 -76.59486 36944 ft 509 kts 14°
2026-05-07 14:36 37.90279 -76.57729 36948 ft 492 kts
2026-05-07 14:36 37.96748 -76.54909 36666 ft 494 kts
2026-05-07 14:36 38.00032 -76.53574 36383 ft 497 kts
2026-05-07 14:37 38.03331 -76.52227 36097 ft 499 kts
2026-05-07 14:37 38.09935 -76.49472 35527 ft 498 kts
2026-05-07 14:37 38.13208 -76.48099 35238 ft 501 kts
2026-05-07 14:38 38.16527 -76.46703 34952 ft 501 kts
2026-05-07 14:38 38.19819 -76.45310 34670 ft 498 kts
2026-05-07 14:38 38.23048 -76.43883 34392 ft 496 kts
2026-05-07 14:38 38.26263 -76.42209 34114 ft 503 kts
2026-05-07 14:39 38.29443 -76.40236 33834 ft 514 kts 14°
2026-05-07 14:39 38.32542 -76.37952 33556 ft 522 kts 19°
2026-05-07 14:39 38.35564 -76.35332 33289 ft 531 kts 24°
2026-05-07 14:39 38.38531 -76.32467 33030 ft 536 kts 27°
2026-05-07 14:40 38.41459 -76.29543 32778 ft 535 kts 27°
2026-05-07 14:40 38.44377 -76.26626 32531 ft 535 kts 28°
2026-05-07 14:40 38.47308 -76.23708 32279 ft 533 kts 27°
2026-05-07 14:40 38.50223 -76.20827 32033 ft 531 kts 27°
2026-05-07 14:41 38.53112 -76.17980 31808 ft 528 kts 27°
2026-05-07 14:41 38.56020 -76.15128 31594 ft 528 kts 27°
2026-05-07 14:41 38.58949 -76.12247 31349 ft 527 kts 27°
2026-05-07 14:41 38.61823 -76.09419 31034 ft 525 kts 27°
2026-05-07 14:42 38.64722 -76.06610 30688 ft 520 kts 26°
2026-05-07 14:42 38.67630 -76.03889 30327 ft 516 kts 26°
2026-05-07 14:42 38.70488 -76.01244 29963 ft 512 kts 25°
2026-05-07 14:42 38.73365 -75.98571 29603 ft 509 kts 25°
2026-05-07 14:43 38.76223 -75.95918 29240 ft 506 kts 26°
2026-05-07 14:43 38.79051 -75.93281 28878 ft 503 kts 26°
2026-05-07 14:43 38.81856 -75.90650 28527 ft 500 kts 26°
2026-05-07 14:43 38.84641 -75.88031 28175 ft 497 kts 26°
2026-05-07 14:44 38.87433 -75.85413 27812 ft 494 kts 26°
2026-05-07 14:44 38.90174 -75.82836 27463 ft 492 kts 26°
2026-05-07 14:44 38.92923 -75.80238 27110 ft 489 kts 26°
2026-05-07 14:44 38.95656 -75.77666 26870 ft 488 kts 26°
2026-05-07 14:45 38.98387 -75.75092 26878 ft 489 kts 26°
2026-05-07 14:45 39.01121 -75.72510 26853 ft 491 kts 26°
2026-05-07 14:45 39.03873 -75.69907 26487 ft 492 kts 26°
2026-05-07 14:45 39.06621 -75.67305 26092 ft 490 kts 26°
2026-05-07 14:46 39.09340 -75.64722 25711 ft 488 kts 26°
2026-05-07 14:46 39.12058 -75.62141 25349 ft 484 kts 26°
2026-05-07 14:46 39.14762 -75.59565 25031 ft 480 kts 26°
2026-05-07 14:46 39.17441 -75.57017 24681 ft 477 kts 26°
2026-05-07 14:47 39.20097 -75.54493 24311 ft 474 kts 26°
2026-05-07 14:47 39.22728 -75.51987 23973 ft 471 kts 26°
2026-05-07 14:47 39.25390 -75.49561 23582 ft 468 kts 24°
2026-05-07 14:47 39.28067 -75.47189 23113 ft 468 kts 24°